map of LFSI home
Great Circle Mapper logo
LFSI - Airport
Location
City:  St-Dizier, Champagne-Ardenne, France
Name:St-Dizier-Robinson AB
ICAO:LFSI

Details
Type:Airport (Aerodrome, Airfield)
Use:Military
Latitude:4838'01"N (48.633536)
Longitude:454'29"E (4.908189)
Elevation:458 ft (140 m)
Variation:1.17E (WMM2015 magnetic declination)
0.13 annual change
Runways:1
Longest:7920 × 148 ft (2414 × 45 m)

Time
Time Zone:UTC+1 (DST+2)
Local Time:

Weather
METAR:LFSI 272230Z AUTO 09003KT CAVOK 16/15 Q1018
TAF:LFSI 272000Z 2721/2821 26006KT CAVOK
TEMPO 2807/2812 3000 RA BKN012
TEMPO 2815/2821 5000 SHRA BKN035TCU

Related Locations
Nearby:
Farthest:CHT: 12091 mi / 19458 km
Waitangi [Tuuta], Chatham Islands, NZ

Find:

   beyond  
but within

Other Information
Maps:
NOTAMs:
Links:
Sources:

  
flag of France
flag of Champagne-Ardenne
  

Sectional Chart

Flight Planning
at skyvector.com

Satellite Image

Google Maps Satellite view

 

Copyright © 2004-2016 Karl L. Swartz. All rights reserved.
The Great Circle Mapper name and logo are trademarks of the Great Circle Mapper.
All other trademarks mentioned herein belong to their respective owners.
Please see credits for attibutions and further copyright information.

  Follow gcmap on Facebook Follow gcmap on Twitter Follow gcmap on Google+ GCmap on LinkedIn

hCard Microformat

Geo Microformat